Weather in Strezgevoy

Russia / Tomsk District     60°43′58″N   77°36′14″E
temp.,
°C
wind,
m/s
gust,
m/s
humid.,
%
clouds,
%
prec.,
mm/h
press.,
hPa
HPBL,
m
20 june, sun
sun2001:00+5wsw1191100 0.1 100510
04:00+4wsw228972 0.0 100426
07:00+7ssw238579 0.0 1003138
10:00+10s347788 0.0 1001233
13:00+17s564733 0.3 10001868
16:00+18s444191 0.0 10001946
19:00+18se444371 0.0 10011862
22:00+13ese347099 0.4 100367
21 june, mon
mon2101:00+10ne358995 0.9 1006103
04:00+9nne499193 0.0 1007229
07:00+9ne5108698 0.4 1010438
10:00+13nne675596 0.0 10111136
13:00+16nne573874 0.0 10122390
16:00+15nne674092 0.0 10132074
19:00+14n454988 0.0 10131682
22:00+12n346538 0.1 101373
22 june, tue
tue2201:00+9n367373 0.1 1013124
04:00+6n34845 0.0 101355
07:00+9n367160 0.0 1014217
10:00+14nnw454911 0.0 10131590
13:00+14n4547100 0.0 10131742
16:00+14n564797 0.1 10141649
19:00+15nne5547100 0.1 10141580
22:00+12nnw3560100 0.0 1014112
23 june, wed
wed2301:00+9n357099 0.0 101584
04:00+7n3476100 0.0 101461
07:00+9nnw3571100 0.0 1015169
10:00+14n3549100 0.0 10141060
13:00+15n4542100 0.0 10141909
16:00+16nnw5540100 0.0 10141949
19:00+16nnw554290 0.0 10141634
22:00+13nnw345892 0.0 101493
24 june, thu
thu2401:00+11nnw3557100 0.0 101495
04:00+10nnw3665100 0.0 1013146
07:00+11n376366 0.0 1013272
10:00+15nnw5646100 0.0 10131076
13:00+17nnw553935 0.0 10121941
16:00+18n4539100 0.0 10112347
19:00+14ene4562100 0.0 1012590
22:00+10n2690100 0.5 1013235